Вернуться в каталог

COSMOS 397 DEB *

АктивенLEO
NORAD 14446·DEBRIS·🇷🇺 Russia

Запущен Feb 25, 1971 с Baikonur Cosmodrome

Loading…

Ближайшие Пролёты (ближайшие 24 часа)

TLE

СвежийSource: Space-Track

Эпоха: Sep 14, 2026, 22:30 UTC

1 14446U 71015CQ  26257.93760624  .00000292  00000-0  45552-3 0  9999
2 14446  65.5694  91.1953 0048250  99.6305 331.2280 13.65152472656669

Отслеживайте COSMOS 397 DEB * в реальном времени с AllMySat

Download on the App Store